This is the latest recevied weather packets stored in our database for station/object VR2OT-10. If no packets are shown the sender has not sent any weather packets the latest 10 day(s).
| Time | Temp. | Humidity | Pressure | Rain* | Wind** | Luminosity | Snow |
|---|---|---|---|---|---|---|---|
| 1777669339 | 22.78° C | 86% | 1012.3 hPa | - | 2.68 m/s, 90° | - | - |
| 1777668438 | 22.78° C | 86% | 1012.2 hPa | - | 1.79 m/s, 90° | - | - |
| 1777667537 | 22.78° C | 85% | 1012.1 hPa | - | 2.24 m/s, 45° | - | - |
| 1777666638 | 22.78° C | 84% | 1012 hPa | - | 2.68 m/s, 90° | - | - |
| 1777665739 | 23.33° C | 85% | 1011.8 hPa | - | 4.02 m/s, 90° | - | - |
| 1777664838 | 23.33° C | 84% | 1011.8 hPa | - | 2.68 m/s, 90° | - | - |
| 1777663939 | 23.33° C | 84% | 1012.1 hPa | - | 1.79 m/s, 135° | - | - |
| 1777663038 | 23.33° C | 84% | 1012.3 hPa | - | 2.68 m/s, 90° | - | - |
| 1777662137 | 23.33° C | 85% | 1012.3 hPa | - | 2.24 m/s, 90° | - | - |
| 1777661238 | 23.33° C | 84% | 1012.3 hPa | - | 1.79 m/s, 90° | - | - |
| 1777660339 | 23.33° C | 84% | 1012.5 hPa | - | 2.68 m/s, 90° | - | - |
| 1777659438 | 23.33° C | 84% | 1012.7 hPa | - | 2.68 m/s, 90° | - | - |
| 1777658539 | 23.33° C | 84% | 1012.8 hPa | - | 3.13 m/s, 90° | - | - |
| 1777657637 | 23.33° C | 84% | 1012.8 hPa | - | 3.58 m/s, 90° | - | - |
| 1777656737 | 23.33° C | 84% | 1013 hPa | - | 3.13 m/s, 90° | - | - |
| 1777655838 | 23.33° C | 84% | 1013 hPa | - | 3.13 m/s, 90° | - | - |
| 1777654939 | 23.33° C | 83% | 1013 hPa | - | 4.02 m/s, 90° | - | - |
| 1777654038 | 23.33° C | 83% | 1013.3 hPa | - | 3.58 m/s, 135° | - | - |
| 1777653139 | 23.33° C | 83% | 1013.5 hPa | - | 3.58 m/s, 90° | - | - |
| 1777652237 | 23.33° C | 83% | 1013.7 hPa | - | 2.68 m/s, 90° | - | - |
| 1777649539 | 23.33° C | 83% | 1013.8 hPa | - | 3.13 m/s, 90° | - | - |
| 1777648638 | 23.33° C | 83% | 1014 hPa | - | 3.13 m/s, 90° | - | - |
| 1777646839 | 23.33° C | 83% | 1014.1 hPa | - | 3.13 m/s, 90° | - | - |
| 1777645938 | 23.33° C | 83% | 1014.2 hPa | - | 3.13 m/s, 90° | - | - |
| 1777645038 | 23.33° C | 83% | 1014.1 hPa | - | 3.13 m/s, 90° | - | - |
* Rain since midnight (hover to see other rain measurements)
** Current wind speed in m/s (hover to see current wind gust speed)